Fort Indiantown Gap, PA

9:43 PM EST on December 13, 2019 (GMT -0500)
Muir Army Air Field

Weather History for KMUI - November, 2019

Change the Weather History Date:

Saturday, November 16, 2019

  Actual Average Record
Temperature  
Mean Temperature 32 °F -  
Max Temperature 41 °F 49 °F 69 °F (2001)
Min Temperature 21 °F 34 °F 23 °F (2000)
Degree Days  
Heating Degree Days 34    
Moisture  
Dew Point 8 °F    
Average Humidity 38    
Maximum Humidity 63    
Minimum Humidity 14    
Precipitation  
Precipitation 0.00 in - - ()
Sea Level Pressure  
Sea Level Pressure 30.40 in    
Wind  
Wind Speed 6 mph ()    
Max Wind Speed 13 mph    
Max Gust Speed 21 mph    
Visibility 10.0 miles    
Events      
Averages and records for this station are not official NWS values.
T = Trace of Precipitation, MM = Missing Value Source: Averaged Metar Reports

Daily Weather History Graph

Daily Weather History Graph

Search for Another Location

Airport or City:

Astronomy

Nov. 16, 2019 Rise Set
Actual Time 6:53 AM EST 4:48 PM EST
Civil Twilight 6:24 AM EST 5:17 PM EST
Nautical Twilight 5:51 AM EST 5:50 PM EST
Astronomical Twilight 5:18 AM EST 6:22 PM EST
Moon 8:18 PM EST (11/16) 10:45 AM EST (11/16)
Length of Visible Light 10h 53m
Length of Day
9h 55m
Waning Gibbous, 82% of the Moon is Illuminated
Nov 16
Waning Gibbous
Nov 19
Last Quarter
Nov 26
New
Dec 4
First Quarter
Dec 12
Full

Hourly Weather History & Observations

Time (EST) Temp. Windchill Dew Point Humidity Pressure Visibility Wind Dir Wind Speed Gust Speed Precip Events Conditions
12:56 AM 38.8 °F 35.4 °F 23.2 °F 53% 30.29 in 10.0 mi NNE 4.6 mph - N/A   Partly Cloudy
1:56 AM 37.2 °F 32.6 °F 22.1 °F 54% 30.29 in 10.0 mi NE 5.8 mph - N/A   Clear
2:56 AM 36.0 °F 29.6 °F 21.7 °F 56% 30.30 in 10.0 mi North 8.1 mph - N/A   Clear
3:56 AM 35.4 °F 27.8 °F 20.8 °F 55% 30.30 in 10.0 mi NE 10.4 mph - N/A   Clear
4:56 AM 36.0 °F 29.6 °F 22.6 °F 58% 30.32 in 10.0 mi NE 8.1 mph - N/A   Overcast
5:56 AM 34.0 °F 28.8 °F 19.0 °F 54% 30.38 in 10.0 mi NNE 5.8 mph - N/A   Clear
7:56 AM 33.8 °F 27.0 °F 16.2 °F 49% 30.44 in 10.0 mi NE 8.1 mph - N/A   Clear
8:56 AM 34.9 °F 29.0 °F 8.6 °F 34% 30.46 in 10.0 mi NE 6.9 mph - N/A   Clear
9:56 AM 36.7 °F 30.5 °F 10.2 °F 34% 30.46 in 10.0 mi ENE 8.1 mph - N/A   Clear
10:56 AM 38.7 °F 30.9 °F 5.9 °F 26% 30.46 in 10.0 mi NE 12.7 mph 20.7 mph N/A   Clear
11:56 AM 39.7 °F 32.3 °F 3.0 °F 22% 30.43 in 10.0 mi ENE 12.7 mph - N/A   Clear
12:56 PM 41.2 °F 34.5 °F -1.7 °F 17% 30.42 in 10.0 mi ENE 11.5 mph 18.4 mph N/A   Clear
1:56 PM 41.7 °F 35.6 °F -2.6 °F 16% 30.40 in 10.0 mi NE 10.4 mph - N/A   Clear
2:56 PM 40.5 °F 34.6 °F -3.6 °F 16% 30.40 in 10.0 mi East 9.2 mph 18.4 mph N/A   Clear
3:56 PM 38.8 °F 32.1 °F -8.0 °F 14% 30.41 in 10.0 mi East 10.4 mph 19.6 mph N/A   Clear
4:56 PM 35.8 °F 30.1 °F -6.2 °F 17% 30.43 in 10.0 mi East 6.9 mph - N/A   Clear
5:56 PM 31.6 °F - -1.1 °F 25% 30.44 in 10.0 mi Calm Calm - N/A   Clear
6:56 PM 27.9 °F - 4.3 °F 37% 30.46 in 10.0 mi Calm Calm - N/A   Clear
7:56 PM 26.2 °F - 5.2 °F 41% 30.45 in 10.0 mi Calm Calm - N/A   Clear
8:56 PM 25.5 °F 21.3 °F 5.0 °F 42% 30.43 in 10.0 mi NNE 3.5 mph - N/A   Clear
9:56 PM 26.2 °F - 5.2 °F 41% 30.43 in 10.0 mi Calm Calm - N/A   Clear
10:56 PM 22.8 °F - 12.0 °F 63% 30.44 in 10.0 mi Calm Calm - N/A   Clear
11:56 PM 21.2 °F - 8.8 °F 59% 30.43 in 10.0 mi Calm Calm - N/A   Clear